Location: Harbor View
(36.2448°N, 86.5797°W)
Time: 09:02:02
(UTC+00:00)

COSMO-SKYMED 1 - Pass Details

Date: 05 March 2021
Orbit: 621 x 623 km, 97.9° (Epoch: 13 April)

Event Time Altitude Azimuth Distance (km) Brightness Sun altitude
Rises 00:32:57 0° 359° (N) 2,909 6.0 -10.6°
Reaches altitude 10° 00:35:23 10° 347° (NNW) 1,998 5.3 -11.1°
Maximum altitude 00:39:04 28° 289° (WNW) 1,186 4.9 -11.9°
Drops below altitude 10° 00:42:43 10° 231° (SW) 1,986 5.9 -12.6°
Sets 00:45:08 0° 220° (SW) 2,887 6.6 -13.1°
